铱星星座 44星 (IRIDIUM 44)

导读 | 豆包AI

IRIDIUM 44(铱星44)是美国铱星星座中的第一代通信卫星,由美国于1997年12月8日发射升空。它运行在近780公里的近极地低地球轨道,属于全球低轨移动通信系统铱星座组网卫星,采用星上处理和星际链路技术,提供全球覆盖的语音、数据、传真和寻呼通信服务,服务海事、航空及偏远区域通信,现已完成服役退役。

基本信息
目录编号:
25078
目录名称:
IRIDIUM 44
国际标识:
1997-077B
轨道中心:
EARTH
卫星名称:
铱星星座 44星
卫星全名:
铱星星座 44星 (IRIDIUM 44)
卫星状态:
在轨 (已飞行10322 天)
发射日期:
1997-12-08 UTC
国别 :
美国 (US)
星等 :
--
轨道信息
数据来源 国际轨道数据 AOE轨道数据
星历时间 2026-03-13T10:51:59+0800
19小时前
查看轨道信息
2026-03-10T00:00:00+0800
4天前
查看轨道信息
半长轴 7134.939km 7134.945km
偏心率 0.000171 0.0001254
轨道倾角 86.392° 86.394°
近地点辐角 145.741° 147.699°
升交点赤经 107.804° 109.265°
平近点角 214.390° 318.295°
近地点 755.581km 755.913km
远地点 758.023km 757.703km
周期 99.964分钟 99.964分钟
每日圈数 14.405139 14.405118
详细信息
平衡模式:
三轴稳定
覆盖范围:
全球
运营商:
铱星通信公司
运营商所在国:
美国
使用方式:
暂无
卫星简介
铱星(Iridium)是由共66个运作中的通信卫星组成的卫星通信系统。这个系统原本规划77个通信卫星,所以用原子序数为77的铱元素来命名。铱卫星允许人们使用手持型电子设备进行全球性的语音及数据通讯。该卫星已退役。
2D轨道图
3D轨道图
轨道高度分析图
轨道倾角分析图
轨道综合分析图
查看轨道综合分析图